Weather History for Hayward, WI

Change the Weather History Date:

Thursday, February 28, 2013

  Actual Average Record
Temperature  
Mean Temperature 24 °F -  
Max Temperature 28 °F 32 °F 46 °F (2004)
Min Temperature 21 °F 4 °F -24 °F (2009)
Degree Days  
Heating Degree Days 40    
Moisture  
Dew Point 17 °F    
Average Humidity 71    
Maximum Humidity 75    
Minimum Humidity 68    
Precipitation  
Precipitation 0.00 in - - ()
Sea Level Pressure  
Sea Level Pressure 30.19 in    
Wind  
Wind Speed 9 mph (NE)    
Max Wind Speed 15 mph    
Max Gust Speed 22 mph    
Visibility 10 miles    
Events Snow    
Averages and records for this station are not official NWS values.
T = Trace of Precipitation, MM = Missing Value Source: NWS Daily Summary

Daily Weather History Graph

Daily Weather History Graph

Search for Another Location

Airport:

Trip Planner

Search our weather history database for the weather conditions in past years. The results will help you decide how hot, cold, wet, or windy it might be!

Date:

Astronomy

Feb. 28, 2013 Rise Set
Actual Time 6:45 AM CST 5:51 PM CST
Civil Twilight 6:15 AM CST 6:21 PM CST
Nautical Twilight 5:41 AM CST 6:55 PM CST
Astronomical Twilight 5:06 AM CST 7:30 PM CST
Moon 9:33 PM CST (2/28) 7:43 AM CST (2/28)
Length of Visible Light 12h 05m
Length of Day
11h 05m
Waning Gibbous, 90% of the Moon is Illuminated
Feb 28
Waning Gibbous
Mar 4
Last Quarter
Mar 11
New
Mar 19
First Quarter
Mar 27
Full

Hourly Weather History & Observations

Time (CST) Temp. Windchill Dew Point Humidity Pressure Visibility Wind Dir Wind Speed Gust Speed Precip Events Conditions
12:53 AM 28.9 °F 19.8 °F 21.0 °F 72% 30.05 in 10.0 mi NNE 10.4 mph 19.6 mph N/A   Overcast
1:53 AM 28.0 °F 20.8 °F 19.9 °F 72% 30.06 in 10.0 mi NNE 6.9 mph 17.3 mph N/A   Overcast
2:53 AM 28.0 °F 20.8 °F 19.0 °F 69% 30.06 in 10.0 mi NNE 6.9 mph - N/A   Overcast
3:53 AM 27.0 °F 21.6 °F 19.0 °F 72% 30.07 in 10.0 mi Variable 4.6 mph - N/A   Overcast
4:53 AM 27.0 °F 20.5 °F 19.0 °F 72% 30.10 in 10.0 mi Variable 5.8 mph - N/A   Overcast
5:53 AM 26.1 °F 19.4 °F 19.0 °F 75% 30.12 in 10.0 mi Variable 5.8 mph 19.6 mph N/A   Overcast
6:53 AM 26.1 °F 19.4 °F 19.0 °F 75% 30.13 in 10.0 mi Variable 5.8 mph 20.7 mph N/A   Overcast
8:53 AM 26.1 °F 18.4 °F 17.1 °F 69% 30.16 in 10.0 mi Variable 6.9 mph - N/A   Overcast
9:53 AM 26.1 °F 17.6 °F 18.0 °F 71% 30.17 in 10.0 mi NNE 8.1 mph 18.4 mph N/A   Overcast
10:53 AM 26.1 °F 15.0 °F 18.0 °F 71% 30.19 in 10.0 mi NNE 12.7 mph 21.9 mph N/A   Overcast
11:53 AM 26.1 °F 15.6 °F 18.0 °F 71% 30.19 in 10.0 mi NNE 11.5 mph 19.6 mph N/A   Overcast
12:53 PM 26.1 °F 19.4 °F 17.1 °F 69% 30.20 in 8.0 mi Variable 5.8 mph - 0.00 in Snow Light Snow
1:53 PM 25.0 °F 14.8 °F 16.0 °F 69% 30.20 in 10.0 mi NNE 10.4 mph 20.7 mph 0.00 in   Overcast
3:53 PM 24.1 °F 15.2 °F 16.0 °F 71% 30.23 in 10.0 mi North 8.1 mph 20.7 mph N/A   Overcast
4:53 PM 24.1 °F 13.1 °F 15.1 °F 69% 30.24 in 10.0 mi NE 11.5 mph 19.6 mph N/A   Overcast
5:53 PM 21.9 °F 10.4 °F 12.9 °F 68% 30.25 in 10.0 mi NE 11.5 mph 21.9 mph N/A   Overcast
6:53 PM 21.9 °F 13.4 °F 15.1 °F 75% 30.26 in 10.0 mi NE 6.9 mph 19.6 mph N/A   Overcast
7:53 PM 21.9 °F 8.7 °F 15.1 °F 75% 30.27 in 10.0 mi NE 15.0 mph 21.9 mph N/A   Overcast
8:53 PM 21.9 °F 11.0 °F 14.0 °F 72% 30.28 in 10.0 mi NE 10.4 mph 21.9 mph N/A   Overcast
9:53 PM 21.9 °F 9.8 °F 14.0 °F 72% 30.28 in 10.0 mi NE 12.7 mph 19.6 mph N/A   Overcast
10:53 PM 21.9 °F 9.8 °F 14.0 °F 72% 30.28 in 10.0 mi ENE 12.7 mph 20.7 mph N/A   Overcast
11:53 PM 21.9 °F 9.2 °F 14.0 °F 72% 30.29 in 10.0 mi NE 13.8 mph 20.7 mph N/A   Overcast